Simultaneous Nadir Overpasses (SNOs) Predictions

Prediction of SNOs between AQUA and NOAA-19 Satellite Orbit:

Table of predicted SNOs for the next 14.0 days since TLE Epoch: 12/8/2017
Index Date (AQUA) Time (AQUA) Lat,Lon (AQUA) SZA (AQUA ) Date (NOAA-19) Time (NOAA-19) Lat,Lon (NOAA-19) SZA (NOAA-19 ) Distance(km) Time Diff (sec)
1 12/09/2017 00:55:57 -80.90, -53.88 74.51 12/09/2017 00:55:33 -80.90, -53.71 74.51 3.17 24
2 12/09/2017 01:45:23 80.88, 113.95 105.47 12/09/2017 01:46:37 80.91, 113.82 105.47 3.46 74
3 12/11/2017 06:29:41 80.90, 42.64 105.73 12/11/2017 06:29:20 80.90, 42.60 105.74 0.61 21
4 12/11/2017 07:19:08 -80.91,-149.89 74.25 12/11/2017 07:20:16 -80.90,-149.75 74.30 2.73 68
5 12/13/2017 12:03:25 -80.91, 139.12 74.08 12/13/2017 12:02:59 -80.90, 139.18 74.08 1.55 26
6 12/13/2017 12:52:52 80.92, -53.40 105.95 12/13/2017 12:54:02 80.90, -53.27 105.90 2.98 70
7 12/15/2017 17:37:08 80.89,-124.07 106.03 12/15/2017 17:36:44 80.90,-124.20 106.06 2.38 24
8 12/15/2017 18:26:35 -80.90, 43.39 73.94 12/15/2017 18:27:41 -80.90, 43.45 73.97 1.05 66
9 12/17/2017 23:10:52 -80.90, -27.66 73.84 12/17/2017 23:10:24 -80.90, -27.68 73.83 0.71 28
10 12/18/2017 00:00:19 80.91, 139.83 106.19 12/18/2017 00:01:26 80.90, 139.84 106.16 1.50 67
11 12/20/2017 04:44:34 80.89, 69.10 106.21 12/20/2017 04:44:06 80.90, 69.21 106.22 2.35 28
12 12/20/2017 05:34:01 -80.90,-123.45 73.76 12/20/2017 05:35:05 -80.90,-123.46 73.79 0.31 64
13 12/22/2017 10:18:18 -80.91, 165.44 73.73 12/22/2017 10:17:48 -80.89, 165.35 73.71 2.14 30




NCC Satellite Simultaneous Nadir Overpasses (SNOs) Prediction Service
